Location: Chantarel
(45.1638°N, 1.7873°E)
Time: 07:02:14
(UTC+00:00)

DMSP B5D1-3 - Pass Details

Date: 03 March 2021
Orbit: 767 x 780 km, 98.5° (Epoch: 10 April)

Event Time Altitude Azimuth Distance (km) Brightness Sun altitude
Rises 18:47:29 0° 14° (NNE) 3,272 7.7 -12.2°
Reaches altitude 10° 18:49:48 10° 15° (NNE) 2,341 6.9 -12.6°
Maximum altitude 18:54:59 85° 104° (ESE) 789 4.5 -13.5°
Drops below altitude 10° 19:00:08 10° 194° (SSW) 2,327 7.1 -14.4°
Sets 19:02:26 0° 194° (SSW) 3,250 7.9 -14.8°
